Regional Weather Roundup
Issued by NWS

Home | Current Version | Previous Version | Graphics & Text | Print | Product List | Glossary On
Versions: 1 2 3 4 5 6 7 8 9 10 11 12 13 14 15 16 17 18 19 20 21 22 23 24 25 26 27 28 29 30 31 32 33 34 35 36 37 38 39 40 41 42 43 44 45 46 47 48 49 50
000
ASUS45 KABQ 252110
RWRNM
NEW MEXICO REGIONAL WEATHER ROUNDUP
NATIONAL WEATHER SERVICE ALBUQUERQUE NM
300 PM MDT TUE JUL 25 2017

NOTE: "FAIR" MEANS FEW OR NO CLOUDS BELOW 12,000 FEET AGL WITH NO
       SIGNIFICANT WEATHER OR OBSTRUCTIONS TO VISION.

      THIS PRODUCT IS RELEASED AS TWO VERSIONS.  ONE VERSION NEAR
      THE TOP OF THE HOUR CONTAINING PRELIMINARY DATA FROM ALBUQUERQUE
      AND OTHER STATIONS.  A FINAL VERSION WITH ADDITIONAL DATA IS
      ISSUED ABOUT 10 MINUTES AFTER THE HOUR.

NMZ501-503-504-510>518-252200-
NORTHWEST PLATEAU/NORTHCENTRAL MOUNTAINS

CITY           SKY/WX    TMP DP  RH WIND       PRES   REMARKS
FARMINGTON     FAIR      80  58  46 NW10      30.17S
LOS ALAMOS     PTSUNNY   77  54  44 NW12G17   30.31R
SANTA FE       FAIR      89  51  27 SW15      30.23F
TAOS           FAIR      73  54  49 W13       30.32S
ANGEL FIRE     FAIR      73  54  50 W22G28    30.39S

$$
NMZ402-403-502-505>509-252200-
WESTCENTRAL MOUNTAINS/SOUTHWEST MOUNTAINS

CITY           SKY/WX    TMP DP  RH WIND       PRES   REMARKS
GALLUP         FAIR      81  57  43 W15       30.27F
GRANTS         FAIR      83  50  32 W10       30.28S
SILVER CITY    FAIR      82  56  40 CALM      30.22F

$$
NMZ407-409-411-412-252200-
SOUTHERN DESERTS

CITY           SKY/WX    TMP DP  RH WIND       PRES   REMARKS
DEMING         FAIR      90  60  36 VRB7      30.13F
LAS CRUCES     PTSUNNY   87  59  38 E7        30.15F
HOLLOMAN AFB   FAIR      95  56  26 SE3       30.12F
ALAMOGORDO     FAIR      91  55  29 SE7       30.13S
T OR C         LGT RAIN  82  61  48 NW10      30.15F

$$
NMZ519>523-252200-
CENTRAL VALLEYS/CENTRAL HIGHLANDS

CITY           SKY/WX    TMP DP  RH WIND       PRES   REMARKS
ALBUQUERQUE    PTSUNNY   89  54  30 VRB3G18   30.17F
DOUBLE EAGLE   PTSUNNY   86  55  35 SE12      30.21F
MORIARTY ARPT  FAIR      87  51  28 SW10      30.23F
CLINES CORNERS PTSUNNY   84  49  29 SW10G23   30.30F
BELEN          PTSUNNY   82  58  43 S8        30.18S
SOCORRO        FAIR      86  55  33 W8        30.16F

$$
NMZ524>526-539-540-252200-
SOUTHCENTRAL MOUNTAINS

CITY           SKY/WX    TMP DP  RH WIND       PRES   REMARKS
RUIDOSO        FAIR      81  54  39 SE9       30.32S

$$
NMZ527>531-252200-
NORTHEAST HIGHLANDS/NORTHEAST PLAINS

CITY           SKY/WX    TMP DP  RH WIND       PRES   REMARKS
LAS VEGAS      FAIR      86  51  29 W21G29    30.26F
RATON          FAIR      88  51  28 S22G30    30.17F
CLAYTON        FAIR      96  52  22 SW14G23   30.10F

$$
NMZ532>537-252200-
EASTCENTRAL PLAINS

CITY           SKY/WX    TMP DP  RH WIND       PRES   REMARKS
SANTA ROSA     FAIR      81  61  49 SE8       30.12F
TUCUMCARI      PTSUNNY   98  55  23 S14G23    30.03F HX  96
CANNON AFB     FAIR      94  58  30 SW13      30.11F
CLOVIS AIRPORT PTSUNNY   91  59  33 S14       30.11F

$$
NMZ028-029-538-252200-
SOUTHEAST PLAINS

CITY           SKY/WX    TMP DP  RH WIND       PRES   REMARKS
ROSWELL        FAIR      99  57  24 SE18G25   30.04F HX  98
ARTESIA        FAIR      97  59  28 S20G28    30.05F HX  96
CARLSBAD       LGT RAIN  83  69  62 SW8       30.05F
HOBBS          MOSUNNY   95  54  24 SE14G20   30.09F


$$




USA.gov is the U.S. government's official web portal to all federal, state and local government web resources and services.